Wind_Speed
92 92 92 93 93 93 93 93 93 93 94 95 95 96 97 97 98 98 97 97 97 97 97 96 95 95 94 94 94 93 93 93 93 93 93 92 91 90 91 91 91 90 90 89 89 89 89 89 89 89 89 89
92 91 92 93 94 94 95 95 96 96 96 96 97 98 98 99 99 99 99 99 99 99 98 97 96 95 95 95 95 95 95 95 94 94 95 95 95 94 94 95 95 94 94 93 93 93 94 94 93 91 91 91
93 93 92 93 94 94 95 96 97 97 98 98 98 98 98 98 99 100 99 99 99 99 98 97 96 96 96 96 96 96 96 96 96 96 96 96 97 97 97 97 98 97 97 96 97 98 98 97 96 95 95 95
96 96 96 96 96 96 97 98 98 99 99 99 99 99 99 99 99 100 100 99 100 99 99 98 98 98 98 98 98 98 98 97 98 98 98 98 98 99 99 99 99 100 100 99 100 101 100 100 101 100 99 100
99 100 99 100 100 100 100 101 101 101 101 102 101 101 101 101 101 101 101 102 102 102 102 102 102 102 101 101 101 101 100 100 100 100 100 100 100 101 101 101 101 101 101 101 102 103 103 103 104 103 103 103
102 102 102 103 103 103 104 104 104 104 104 104 104 104 104 104 104 104 104 104 105 105 105 105 105 105 105 105 104 104 104 103 103 102 102 102 102 102 102 102 102 102 102 102 103 104 104 105 106 106 106 105
103 103 104 105 105 105 106 106 107 107 107 107 107 107 107 107 107 107 107 108 108 108 108 109 109 109 109 108 108 108 107 107 107 106 106 105 105 105 105 104 104 104 104 104 104 105 105 106 107 107 107 106
102 103 104 105 106 106 107 108 108 109 109 109 110 110 110 110 109 109 109 110 111 111 112 112 112 113 112 112 112 111 111 111 110 110 109 109 109 108 108 108 108 107 108 107 107 107 108 109 109 109 109 108
98 100 101 103 104 105 106 107 108 109 110 110 111 111 112 112 112 112 112 112 112 113 113 114 114 115 115 115 115 114 114 114 113 113 113 112 112 112 111 111 111 111 111 111 111 111 111 112 112 112 112 112
93 95 97 99 100 102 103 104 105 106 107 108 109 110 111 112 113 114 114 114 114 114 114 114 114 114 115 115 115 115 115 115 115 115 115 115 115 115 115 114 114 114 114 115 115 115 115 115 115 115 115 115
87 89 91 93 95 96 97 99 100 102 103 105 106 107 108 109 111 112 113 114 115 115 115 115 114 114 114 114 114 115 115 115 115 116 116 116 117 117 117 117 117 117 117 117 118 118 119 118 118 118 118 118
82 83 85 86 87 89 90 91 93 94 96 98 100 102 104 105 106 108 109 111 112 113 114 114 115 115 114 114 114 114 114 114 115 115 116 116 117 117 117 118 118 119 119 119 120 120 121 121 121 121 121 120
80 81 81 82 83 84 85 86 87 88 89 91 93 95 97 99 100 102 104 106 107 109 110 112 113 113 114 114 113 113 113 113 113 114 114 115 116 116 117 118 118 119 119 120 121 121 122 122 122 122 123 122
80 80 81 82 82 83 84 85 85 86 86 87 88 89 90 92 93 95 97 99 101 103 104 106 108 109 110 111 112 112 112 112 112 112 113 113 114 115 115 116 117 117 118 119 120 121 121 122 122 122 123 123
81 82 82 83 84 85 85 86 87 87 87 87 87 88 88 88 89 90 91 93 95 97 98 100 101 103 105 106 107 108 109 110 110 110 111 111 112 112 113 114 115 115 116 117 118 119 120 120 121 121 122 122
81 83 84 85 86 86 87 88 89 89 89 89 89 89 89 89 88 88 89 89 91 92 94 95 96 97 99 100 101 102 104 105 106 107 108 108 109 109 110 111 112 113 114 115 116 116 117 118 119 120 120 121
80 82 83 85 86 87 89 90 90 91 91 91 91 91 91 91 91 90 90 90 90 91 92 93 94 95 95 96 96 97 98 99 101 102 104 105 105 106 106 107 108 109 110 111 113 114 115 116 117 118 118 119
79 80 82 84 85 87 88 89 91 91 92 92 92 93 93 93 93 93 92 91 91 92 92 93 93 94 94 94 94 94 94 94 95 97 98 99 101 102 103 103 104 105 106 108 109 111 112 113 115 116 116 117
80 81 82 83 84 86 87 88 90 91 92 92 92 93 93 94 94 94 94 93 93 93 93 94 94 95 95 95 94 94 93 92 92 93 94 95 96 97 99 100 101 102 103 104 106 107 109 110 111 113 114 115
84 84 85 85 86 87 88 89 90 91 92 92 93 93 93 94 94 94 94 94 94 94 94 94 95 95 96 96 96 95 94 93 93 92 92 92 92 93 94 96 97 99 101 102 103 104 106 107 108 109 111 112
87 88 89 89 90 90 91 92 92 93 93 94 94 95 95 95 95 95 95 95 95 94 94 94 95 96 96 96 97 97 96 95 94 93 93 92 91 91 92 93 94 96 97 99 101 102 104 105 106 107 108 109
91 92 93 94 94 95 95 95 96 96 96 97 97 97 98 98 97 97 96 96 95 95 94 94 94 95 96 96 96 97 97 96 96 95 94 93 92 92 91 91 92 93 95 96 98 100 102 103 104 105 106 107
95 96 97 98 99 99 99 99 100 100 100 100 100 101 101 101 100 99 98 97 97 96 95 94 93 93 94 95 95 96 96 96 96 95 95 95 94 93 92 92 92 92 93 94 96 98 99 101 103 104 105 106
99 100 101 102 103 103 103 103 103 103 104 104 104 104 103 103 102 102 101 100 99 98 97 96 94 93 93 93 94 94 95 95 95 95 95 95 94 94 94 93 93 93 93 94 95 96 98 99 101 103 104 106
103 104 105 105 106 106 106 106 107 107 107 107 107 106 106 106 105 104 103 102 101 100 99 97 96 94 93 93 93 93 93 94 94 94 94 94 94 94 94 94 94 94 94 94 95 96 97 98 100 101 103 105
107 108 108 108 108 108 108 108 108 108 108 108 108 108 108 107 106 105 104 103 102 100 99 97 96 95 94 93 93 93 93 93 93 93 93 94 94 94 94 94 94 94 95 95 96 97 97 98 99 101 102 103
110 110 111 111 111 110 110 109 109 108 108 107 107 107 106 106 105 104 102 101 100 99 97 96 95 95 94 94 94 94 94 94 94 94 94 94 94 95 95 95 95 95 95 96 96 97 97 98 99 100 101 102
113 113 113 113 112 111 110 109 108 107 106 105 105 104 104 103 102 101 100 99 98 97 96 96 95 95 95 95 95 95 95 95 95 95 95 95 95 96 96 96 96 96 97 97 97 97 98 98 99 99 101 101
114 114 113 112 111 110 109 108 106 105 104 103 103 103 102 102 101 100 99 98 97 97 96 95 95 95 95 95 95 95 96 96 96 96 96 96 97 97 97 97 97 97 97 97 98 98 98 99 99 100 100 101
115 114 112 111 109 108 107 105 104 103 102 102 101 101 101 101 100 99 98 97 96 95 95 94 94 94 94 94 95 95 96 96 96 97 97 97 97 97 97 97 97 97 97 98 98 99 99 100 100 100 101 101
113 111 108 106 104 103 102 101 100 99 98 98 98 98 98 98 97 97 96 95 94 93 93 93 92 92 93 93 94 94 95 95 96 96 96 96 96 96 97 97 97 97 97 98 98 99 100 100 100 101 101 102
Wind_Direction
265 266 266 267 267 268 268 269 269 269 269 270 270 270 271 271 272 272 272 272 272 272 272 272 271 271 271 271 271 272 272 272 272 273 272 272 272 272 271 271 271 271 270 271 271 271 271 271 270 270 270 270
264 265 265 265 265 265 266 267 268 268 268 269 269 270 270 271 271 271 271 271 271 271 271 270 269 269 269 269 269 270 270 270 271 271 271 271 271 271 272 272 272 272 271 272 272 272 271 271 271 271 271 271
265 265 265 265 265 265 265 266 266 266 267 267 267 268 268 269 269 270 270 270 270 270 269 269 268 268 268 268 268 268 268 268 269 269 269 269 269 269 270 271 271 271 272 272 272 272 272 272 272 272 272 271
267 267 266 266 266 266 266 266 266 266 266 266 266 267 267 268 268 268 268 269 269 268 269 268 268 268 268 268 268 268 268 267 267 267 267 267 267 268 268 269 269 270 270 270 270 271 271 272 272 271 271 271
267 267 267 267 266 266 266 266 266 267 267 267 266 266 267 267 267 268 268 268 268 268 268 268 268 268 269 269 269 268 268 268 268 267 267 267 267 267 267 267 268 268 268 268 268 268 269 269 270 270 270 270
267 267 267 267 267 266 266 266 266 266 266 266 266 266 266 266 267 267 267 267 267 267 268 268 268 269 269 269 269 269 269 269 268 268 268 268 268 268 267 267 267 267 268 268 268 268 268 268 269 269 269 269
266 266 267 267 267 267 267 267 266 266 266 266 266 265 265 265 265 265 266 266 267 267 267 268 268 269 269 269 269 269 269 269 269 269 269 269 269 269 268 268 268 267 267 268 268 268 269 269 269 269 270 270
266 266 266 266 266 266 267 267 267 267 267 267 267 266 266 266 265 265 264 264 265 265 266 267 267 267 268 268 269 269 269 269 269 269 269 269 269 269 269 269 269 269 268 268 268 269 269 270 270 270 270 270
266 266 266 266 266 266 266 266 266 267 267 267 267 268 268 268 267 267 266 265 265 265 265 265 266 266 267 267 268 268 268 268 269 269 269 269 269 269 269 269 269 269 269 269 269 269 269 270 270 270 270 270
266 266 266 266 266 266 266 266 266 266 266 266 267 267 267 268 268 268 268 268 267 266 266 266 266 266 266 267 267 267 267 268 268 268 268 269 269 269 269 269 269 269 269 270 270 270 270 270 270 270 270 270
266 267 267 267 267 267 266 266 266 266 266 266 266 266 267 267 267 267 268 268 268 268 267 267 267 267 266 267 267 267 267 267 267 268 268 268 268 268 268 268 269 269 269 269 270 270 270 270 270 270 270 270
266 267 267 267 267 267 267 267 267 267 267 266 266 266 266 266 267 267 267 267 267 267 267 267 267 267 267 267 267 267 267 267 267 267 267 267 267 267 268 268 268 268 268 269 269 269 270 270 270 270 270 270
267 267 267 267 267 267 267 267 267 267 267 267 267 267 267 267 267 267 267 267 267 267 267 267 267 267 267 267 267 266 266 266 266 267 267 267 267 267 267 267 268 268 268 268 268 268 269 269 269 269 270 270
271 270 269 269 268 268 267 267 267 267 267 267 267 267 267 267 267 267 267 267 267 267 267 267 267 267 267 266 266 266 266 266 266 266 266 266 267 267 267 267 267 267 268 268 268 268 268 268 268 268 269 269
273 272 272 271 271 270 269 269 268 268 267 267 267 267 267 268 268 268 268 268 268 268 267 267 267 267 267 267 267 266 266 266 266 266 266 266 266 266 267 267 267 267 267 268 268 268 268 268 268 268 268 268
276 275 274 273 272 272 271 271 270 269 269 268 268 268 268 268 268 268 269 269 269 269 268 268 268 267 267 267 267 267 267 267 266 266 266 266 266 266 266 266 266 267 267 267 267 268 268 268 268 268 268 268
279 277 276 275 274 273 272 272 271 270 270 269 269 269 268 268 268 268 269 270 270 270 269 269 268 268 268 267 267 267 268 267 267 267 266 266 266 266 266 266 267 267 267 267 267 267 267 268 268 268 268 268
281 280 279 278 276 275 274 273 272 271 270 270 269 269 268 268 268 268 268 269 270 270 270 270 269 269 268 268 268 268 268 268 268 268 268 267 267 267 267 267 267 267 267 267 267 267 267 267 268 268 268 268
284 283 282 280 279 278 277 275 274 273 272 271 270 269 269 269 268 268 268 268 269 270 270 270 269 269 268 268 268 268 267 268 268 268 268 268 268 268 268 267 267 267 268 268 268 268 268 268 268 268 268 268
286 285 284 283 282 281 279 278 277 275 274 273 272 271 270 270 269 269 269 269 269 270 270 270 270 269 268 268 267 267 267 267 267 268 268 268 268 268 269 268 268 268 268 268 268 268 268 268 268 268 268 268
287 286 285 284 283 282 281 280 279 278 276 275 274 273 272 271 270 270 270 270 270 270 270 270 270 269 268 268 267 267 267 267 267 267 267 268 268 268 269 269 269 269 269 269 269 269 269 269 269 269 269 269
287 286 285 284 283 283 282 281 280 279 278 276 276 275 274 273 272 272 271 271 271 271 271 271 271 269 268 267 267 266 266 266 266 266 267 267 268 268 269 269 269 270 270 270 270 269 269 269 269 269 269 269
286 285 284 284 283 282 281 281 280 279 278 277 277 276 276 275 275 274 274 273 273 272 272 272 272 270 269 268 267 267 266 266 266 266 266 267 267 268 268 269 269 270 270 270 270 270 270 270 270 270 269 269
285 285 284 283 283 282 281 280 279 279 278 277 277 276 276 276 276 276 276 275 275 274 274 273 272 271 269 268 267 267 267 266 266 266 266 267 267 268 268 269 269 270 270 270 270 270 270 270 270 270 270 270
286 285 285 284 283 282 281 280 279 278 278 277 277 276 276 276 276 276 276 276 275 275 274 274 273 271 269 268 267 267 267 267 267 267 267 267 267 268 269 269 269 270 270 270 270 270 270 270 270 270 270 270
287 286 285 285 284 282 281 281 280 279 278 277 277 277 276 276 276 276 276 275 275 275 274 273 272 271 270 269 268 267 267 267 267 267 267 267 268 268 269 269 270 270 270 271 271 271 271 271 271 271 271 271
288 287 286 285 284 283 282 281 281 280 279 278 277 277 276 276 276 276 275 275 274 274 273 272 272 271 270 270 269 269 268 268 268 268 268 268 268 268 269 270 270 271 271 271 271 271 271 271 271 271 271 271
289 288 287 286 285 284 283 282 281 280 279 278 277 277 276 276 275 275 275 274 274 273 272 272 271 270 270 270 269 269 269 269 269 269 268 268 268 269 269 269 270 270 271 271 271 271 271 271 271 271 271 272
289 288 287 286 285 284 283 282 281 280 279 278 277 276 276 275 275 274 274 273 273 272 272 271 270 270 269 269 269 269 268 268 268 269 269 269 269 269 269 269 270 270 270 271 271 271 271 271 271 271 271 272
290 289 287 286 285 284 283 282 281 280 278 278 277 276 275 275 274 274 273 273 272 271 271 270 269 268 268 268 267 267 267 267 267 268 268 268 268 269 269 269 269 269 270 270 270 271 271 271 271 271 271 272
290 288 287 286 284 283 282 281 280 279 278 277 276 276 275 275 274 273 273 272 271 270 269 269 268 267 267 266 266 266 266 266 266 267 267 267 268 268 268 268 269 269 269 270 270 270 270 271 271 271 271 272
Height
10798 10797 10797 10797 10796 10795 10794 10793 10793 10793 10793 10792 10792 10791 10791 10791 10790 10789 10788 10788 10788 10788 10787 10787 10787 10787 10786 10786 10785 10785 10784 10784 10783 10783 10782 10783 10783 10783 10782 10780 10780 10779 10779 10779 10779 10778 10776 10775 10776 10776 10777 10777
10788 10789 10789 10787 10787 10786 10785 10784 10784 10784 10783 10783 10783 10782 10782 10782 10781 10780 10779 10779 10779 10778 10778 10778 10778 10778 10777 10777 10776 10776 10776 10776 10775 10775 10774 10774 10774 10774 10773 10771 10770 10770 10771 10772 10771 10768 10766 10766 10767 10769 10769 10768
10779 10780 10780 10779 10778 10777 10776 10775 10775 10774 10774 10774 10774 10773 10773 10773 10771 10769 10770 10770 10769 10769 10769 10768 10768 10768 10768 10767 10767 10767 10767 10767 10767 10766 10766 10766 10766 10766 10765 10762 10761 10762 10762 10763 10761 10757 10758 10758 10758 10759 10759 10758
10770 10770 10770 10769 10768 10768 10767 10766 10765 10764 10764 10764 10763 10763 10763 10763 10762 10759 10760 10760 10758 10758 10759 10758 10758 10758 10758 10758 10757 10758 10758 10758 10757 10757 10757 10756 10756 10757 10757 10755 10753 10753 10753 10754 10751 10749 10751 10748 10746 10748 10748 10748
10761 10760 10760 10759 10758 10758 10757 10756 10755 10754 10753 10753 10753 10753 10753 10753 10752 10750 10750 10749 10747 10748 10748 10748 10748 10747 10747 10747 10747 10747 10747 10747 10747 10747 10747 10746 10746 10747 10747 10746 10745 10743 10742 10743 10741 10740 10742 10737 10734 10737 10737 10738
10752 10751 10750 10748 10748 10748 10746 10745 10745 10744 10743 10742 10742 10742 10742 10742 10741 10740 10740 10738 10737 10737 10737 10737 10737 10736 10736 10736 10736 10736 10736 10736 10736 10736 10736 10736 10736 10736 10736 10736 10735 10734 10732 10732 10731 10729 10730 10727 10724 10724 10725 10727
10743 10742 10741 10738 10738 10737 10736 10735 10734 10734 10733 10732 10731 10730 10730 10730 10730 10730 10729 10728 10726 10726 10726 10726 10725 10725 10724 10725 10725 10725 10725 10725 10725 10725 10725 10725 10725 10725 10725 10725 10724 10724 10722 10721 10721 10718 10718 10716 10714 10714 10714 10715
10734 10733 10732 10730 10729 10728 10727 10726 10725 10724 10723 10721 10720 10720 10719 10718 10719 10719 10718 10717 10715 10715 10715 10714 10714 10713 10713 10713 10713 10714 10713 10713 10713 10713 10713 10713 10713 10713 10713 10713 10713 10712 10711 10710 10710 10708 10707 10705 10703 10704 10703 10702
10725 10723 10722 10721 10720 10719 10718 10716 10715 10714 10712 10711 10710 10709 10708 10707 10707 10707 10707 10706 10705 10705 10704 10703 10702 10702 10701 10701 10701 10702 10701 10701 10701 10701 10701 10701 10701 10701 10701 10701 10701 10701 10700 10698 10698 10697 10696 10694 10692 10693 10692 10691
10715 10714 10712 10711 10710 10708 10707 10706 10704 10703 10702 10700 10699 10698 10697 10696 10695 10695 10694 10694 10693 10693 10693 10692 10692 10691 10690 10690 10689 10689 10690 10690 10690 10690 10690 10689 10689 10689 10689 10689 10689 10689 10688 10686 10685 10684 10684 10683 10681 10680 10681 10680
10707 10705 10703 10701 10699 10698 10696 10695 10693 10692 10691 10690 10688 10688 10687 10685 10683 10683 10682 10681 10680 10680 10680 10680 10680 10679 10679 10678 10678 10677 10677 10678 10677 10677 10677 10677 10676 10677 10677 10676 10676 10676 10676 10675 10673 10672 10671 10670 10669 10668 10668 10668
10699 10697 10694 10692 10690 10688 10686 10684 10683 10681 10680 10679 10677 10677 10676 10674 10673 10671 10670 10669 10668 10667 10667 10667 10666 10666 10666 10666 10666 10665 10665 10665 10665 10665 10664 10664 10664 10664 10664 10664 10664 10663 10663 10662 10661 10660 10659 10658 10657 10656 10655 10655
10691 10689 10687 10684 10681 10679 10677 10675 10673 10671 10670 10668 10667 10666 10665 10663 10662 10661 10659 10657 10656 10655 10654 10654 10653 10653 10653 10653 10653 10653 10652 10652 10652 10651 10651 10651 10651 10651 10651 10651 10651 10651 10650 10649 10649 10648 10647 10645 10644 10643 10642 10642
10684 10681 10679 10676 10674 10672 10669 10667 10665 10663 10661 10659 10657 10656 10654 10653 10651 10650 10648 10646 10644 10644 10643 10642 10641 10641 10640 10640 10640 10640 10639 10639 10638 10638 10638 10638 10638 10638 10638 10638 10638 10638 10637 10636 10636 10635 10633 10632 10632 10631 10630 10629
10675 10673 10671 10668 10666 10663 10661 10659 10656 10654 10652 10650 10648 10646 10644 10643 10641 10640 10638 10636 10634 10633 10632 10631 10630 10629 10628 10627 10627 10627 10626 10626 10626 10625 10625 10625 10624 10624 10624 10624 10625 10624 10624 10623 10622 10621 10620 10619 10619 10618 10617 10616
10666 10664 10662 10659 10657 10654 10652 10649 10647 10645 10643 10641 10639 10637 10635 10633 10632 10630 10628 10626 10624 10623 10621 10620 10619 10617 10616 10616 10615 10615 10614 10613 10613 10612 10612 10612 10611 10611 10611 10611 10611 10611 10610 10610 10609 10608 10607 10606 10605 10604 10604 10603
10657 10654 10652 10650 10647 10644 10642 10639 10637 10635 10633 10631 10629 10627 10625 10623 10622 10620 10618 10616 10614 10613 10611 10609 10608 10607 10606 10605 10604 10603 10602 10601 10601 10600 10599 10599 10599 10598 10598 10598 10597 10597 10597 10596 10595 10595 10594 10593 10592 10591 10590 10590
10648 10645 10642 10639 10637 10634 10632 10629 10627 10624 10622 10620 10618 10616 10614 10612 10610 10609 10608 10606 10604 10602 10600 10599 10597 10596 10595 10594 10593 10592 10591 10591 10589 10588 10587 10587 10586 10586 10585 10585 10584 10584 10583 10583 10582 10581 10581 10580 10579 10578 10577 10576
10638 10635 10632 10629 10626 10623 10621 10618 10616 10613 10611 10608 10606 10604 10602 10600 10599 10597 10596 10594 10593 10591 10590 10588 10586 10585 10584 10583 10582 10581 10580 10580 10579 10577 10576 10576 10575 10574 10573 10572 10571 10571 10570 10570 10569 10568 10567 10567 10567 10566 10565 10564
10628 10625 10621 10618 10615 10612 10609 10607 10604 10601 10599 10596 10594 10592 10590 10588 10586 10585 10584 10582 10581 10580 10578 10577 10575 10574 10573 10571 10570 10570 10569 10569 10568 10566 10566 10565 10564 10563 10561 10560 10559 10558 10557 10557 10556 10555 10555 10554 10554 10554 10552 10551
10617 10614 10610 10607 10604 10601 10598 10595 10592 10589 10587 10584 10582 10580 10578 10576 10574 10573 10571 10570 10568 10567 10566 10564 10563 10562 10561 10560 10559 10558 10557 10557 10556 10555 10554 10554 10553 10552 10550 10549 10548 10547 10546 10544 10543 10543 10542 10542 10542 10541 10540 10539
10605 10601 10598 10595 10592 10589 10586 10583 10580 10577 10574 10572 10569 10567 10565 10563 10561 10560 10559 10557 10556 10555 10553 10552 10551 10549 10548 10548 10546 10546 10545 10545 10544 10543 10543 10542 10541 10541 10540 10538 10537 10536 10534 10533 10532 10531 10531 10530 10529 10528 10528 10527
10592 10589 10586 10582 10579 10576 10573 10570 10567 10564 10562 10559 10556 10554 10552 10550 10548 10547 10545 10544 10543 10542 10540 10539 10538 10537 10535 10535 10534 10533 10533 10532 10532 10531 10531 10530 10530 10529 10528 10527 10526 10525 10523 10522 10520 10519 10519 10518 10517 10516 10515 10514
10580 10576 10573 10569 10566 10562 10559 10556 10553 10551 10548 10545 10543 10541 10539 10537 10535 10533 10532 10531 10529 10528 10527 10526 10525 10524 10523 10522 10521 10520 10520 10519 10519 10519 10518 10518 10518 10517 10516 10515 10515 10513 10512 10510 10509 10508 10507 10506 10505 10503 10502 10501
10567 10563 10560 10556 10552 10548 10545 10542 10539 10537 10534 10532 10529 10527 10525 10523 10522 10520 10519 10517 10516 10515 10514 10513 10512 10510 10509 10509 10508 10508 10507 10507 10506 10506 10506 10505 10505 10505 10504 10503 10502 10501 10500 10499 10498 10497 10496 10495 10493 10492 10490 10489
10553 10549 10545 10541 10537 10533 10530 10527 10524 10522 10520 10517 10515 10513 10511 10509 10508 10506 10505 10503 10502 10501 10500 10499 10498 10497 10496 10495 10495 10495 10494 10494 10494 10493 10493 10493 10492 10492 10491 10491 10490 10489 10488 10487 10486 10485 10485 10484 10482 10480 10479 10478
10538 10534 10530 10526 10522 10518 10515 10512 10509 10507 10504 10502 10500 10498 10496 10494 10493 10491 10490 10489 10488 10487 10486 10486 10485 10484 10483 10483 10482 10482 10481 10481 10481 10481 10480 10480 10480 10479 10479 10478 10477 10476 10475 10475 10474 10473 10473 10472 10471 10468 10466 10466
10522 10518 10514 10510 10506 10502 10499 10496 10493 10491 10489 10487 10484 10482 10480 10479 10478 10476 10475 10474 10474 10473 10473 10472 10472 10471 10470 10470 10469 10469 10469 10468 10468 10468 10467 10467 10467 10467 10466 10466 10465 10464 10463 10463 10463 10462 10461 10460 10460 10458 10455 10453
10506 10502 10498 10494 10491 10487 10483 10480 10478 10475 10473 10471 10469 10467 10465 10464 10463 10462 10461 10460 10459 10459 10459 10459 10459 10458 10457 10457 10456 10456 10456 10455 10455 10455 10454 10454 10454 10454 10453 10453 10452 10452 10451 10451 10450 10450 10449 10448 10448 10446 10444 10443
10490 10486 10482 10478 10475 10471 10468 10465 10462 10460 10458 10456 10454 10452 10450 10449 10448 10447 10446 10445 10445 10445 10444 10444 10444 10444 10444 10443 10443 10442 10442 10442 10442 10442 10442 10441 10441 10441 10440 10440 10440 10439 10438 10439 10438 10437 10437 10437 10436 10435 10433 10432
10473 10469 10465 10461 10458 10455 10452 10450 10447 10445 10443 10441 10439 10437 10436 10435 10434 10433 10432 10431 10431 10430 10430 10430 10430 10430 10430 10429 10429 10429 10429 10429 10429 10429 10429 10429 10428 10428 10428 10427 10427 10427 10426 10426 10426 10425 10425 10424 10424 10423 10421 10420